sat.trackr.live / text

‹ back to catalog

STARLINK-6184

NORAD 57081 · 2023-088AK

PAYLOAD ACTIVE UNKNOWN

§ Identity

Operator
Country
US
Launch date
2023-06-22
Launch site
AFWTR
Launch vehicle
Mass (kg)
RCS (m²)

Purposes: comms

External: N2YO · Heavens-Above · Gunter

§ Orbital elements

Epoch: 2026-05-24T22:34:39.307008Z

Period
94.27 min
Inclination
43.0051°
Eccentricity
0.0001354
Mean motion
15.27576426 rev/d
Perigee alt
482.1 km
Apogee alt
484.0 km
Semi-major
6,861.2 km
B*
1.5787e-5
RAAN
25.3534°
Arg perigee
265.5542°
Mean anomaly
94.5156°
Rev number
16,216

§ Raw data

STARLINK-61841 57081U 23088AK  26144.94073272  .00000172  00000+0  15787-4 0  99942 57081  43.0051  25.3534 0001354 265.5542  94.5156 15.27576426162161

JSON: /api/v1/satellites/57081 · /tle

For live sub-satellite position, see the globe view (requires WebGL).

§ Visibility from observer

Set your observer location to see the next 7 days of passes ≥ 10°. The values pass through the URL so the page stays shareable.

No JS? Fill the form by hand. The geolocation button needs JavaScript.